Location: Unspecified
(0.0000°N, 0.0000°E)
Time: 18:58:52
(UTC+00:00)

Tiangong 2 - Pass Details

Date: 25 April 2017
Orbit: 386 x 391 km, 42.8° (Epoch: 20 November)

Event Time Altitude Azimuth Distance (km) Brightness Sun altitude
Rises 18:58:46 0° 287° (WNW) 2,283 6.9 -14.8°
Maximum altitude 19:03:26 15° 225° (SW) 1,152 3.8 -15.9°
Drops below altitude 10° 19:05:25 10° 186° (S) 1,421 3.8 -16.4°
Enters shadow 19:06:02 - 179° (S) 1,585 4.0 -16.6°
